Date String (YYYY-MM-DD hh:mm:ss) UTC,Instrument flags,Ambient pressure (hPa),Sample flow (lpm),Bypass flow (lpm),Sample temperature (°C),Ambient temperature (°C),ASC tube jacket temperature (°C),LED temperature (°C),Box temperature (°C),Sample RH (%),Span deviation,Mass concentration (μg/m³),Mass concentration (μg/m³),Mass concentration (μg/m³)
DateTimeUTC,F1_M11,P_M11,Q1_M11,Q2_M11,T1_M11,T2_M11,T3_M11,T4_M11,T5_M11,U1_M11,ZSPAN_M11,X0_M11,X2_M11,X1_M11
2023-05-18 13:00:00,,0831.1,4.99,0.00,29.3,27.6,00.0,37.7,30.9,26.0,0001.8,0010.03,0005.66,0004.91
2023-05-18 13:01:00,,0831.2,5.01,0.00,29.3,27.6,00.0,37.7,30.9,26.1,0002.1,0009.99,0005.64,0004.90
2023-05-18 13:02:00,,0831.1,5.01,0.00,29.3,27.5,00.0,37.7,30.8,26.3,0001.9,0009.90,0005.61,0004.90
2023-05-18 13:03:00,,0831.2,5.00,0.00,29.3,27.5,00.0,37.7,30.8,26.2,0001.9,0009.79,0005.60,0004.91
2023-05-18 13:04:00,,0831.1,4.99,0.00,29.2,27.5,00.0,37.7,30.8,26.2,0001.6,0009.84,0005.64,0004.91
2023-05-18 13:05:00,,0831.1,5.00,0.00,29.2,27.5,00.0,37.6,30.8,26.3,0001.5,0009.89,0005.66,0004.90
2023-05-18 13:06:00,,0831.1,5.01,0.00,29.2,27.5,00.0,37.6,30.8,26.4,0001.6,0009.94,0005.69,0004.90
2023-05-18 13:07:00,,0831.1,4.99,0.00,29.2,27.5,00.0,37.6,30.8,26.3,0000.7,0009.95,0005.70,0004.91
2023-05-18 13:08:00,,0831.1,5.00,0.00,29.2,27.5,00.0,37.6,30.8,26.4,0001.2,0009.81,0005.65,0004.91
2023-05-18 13:09:00,,0831.2,5.00,0.00,29.2,27.5,00.0,37.6,30.8,26.5,0000.0,0009.74,0005.63,0004.90
2023-05-18 13:10:00,,0831.2,5.01,0.00,29.2,27.5,00.0,37.6,30.8,26.9,0000.0,0009.06,0005.59,0004.89
2023-05-18 13:11:00,,0831.2,4.99,0.00,29.2,27.5,00.0,37.6,30.8,27.1,0000.0,0008.87,0005.58,0004.88
2023-05-18 13:12:00,,0831.3,5.00,0.00,29.2,27.6,00.0,37.6,30.8,27.2,0000.0,0008.86,0005.58,0004.88
2023-05-18 13:13:00,,0831.3,5.00,0.00,29.2,27.6,00.0,37.6,30.8,27.2,0000.0,0008.80,0005.54,0004.88
2023-05-18 13:14:00,,0831.3,5.01,0.00,29.2,27.6,00.0,37.6,30.8,27.5,0000.0,0008.87,0005.57,0004.89
2023-05-18 13:15:00,,0831.3,5.01,0.00,29.2,27.6,00.0,37.6,30.8,27.6,0000.0,0008.86,0005.59,0004.90
2023-05-18 13:16:00,,0831.3,4.99,0.00,29.2,27.6,00.0,37.6,30.8,27.4,0000.0,0008.80,0005.58,0004.91
2023-05-18 13:17:00,,0831.4,5.00,0.00,29.2,27.5,00.0,37.6,30.8,27.1,0000.0,0008.72,0005.57,0004.94
2023-05-18 13:18:00,,0831.3,5.01,0.00,29.2,27.5,00.0,37.6,30.8,27.6,0000.0,0008.83,0005.59,0004.96
2023-05-18 13:19:00,,0831.4,5.00,0.00,29.2,27.5,00.0,37.6,30.8,27.8,0000.0,0009.55,0005.62,0004.97
2023-05-18 13:20:00,,0831.3,5.00,0.00,29.2,27.5,00.0,37.6,30.8,28.0,0000.0,0009.62,0005.65,0004.99
2023-05-18 13:21:00,,0831.4,5.00,0.00,29.2,27.5,00.0,37.6,30.8,28.0,0000.0,0009.60,0005.65,0005.00
2023-05-18 13:22:00,,0831.4,5.00,0.00,29.2,27.5,00.0,37.6,30.8,28.0,0001.3,0009.62,0005.67,0005.02
2023-05-18 13:23:00,,0831.4,5.00,0.00,29.2,27.5,00.0,37.6,30.8,27.7,0003.7,0009.79,0005.71,0005.04
2023-05-18 13:24:00,,0831.4,5.00,0.00,29.2,27.4,00.0,37.6,30.8,27.6,0002.8,0009.79,0005.74,0005.07
2023-05-18 13:25:00,,0831.4,4.99,0.00,29.1,27.4,00.0,37.6,30.8,27.5,0003.4,0009.87,0005.78,0005.09
2023-05-18 13:26:00,,0831.4,5.00,0.00,29.1,27.4,00.0,37.6,30.7,27.6,0000.8,0010.01,0005.80,0005.10
2023-05-18 13:27:00,,0831.4,4.99,0.00,29.1,27.4,00.0,37.6,30.7,27.7,0002.8,0010.09,0005.81,0005.12
2023-05-18 13:28:00,,0831.4,5.01,0.00,29.1,27.5,00.0,37.6,30.8,27.6,0002.1,0010.22,0005.84,0005.11
2023-05-18 13:29:00,,0831.5,5.01,0.00,29.1,27.5,00.0,37.5,30.8,27.7,0003.5,0010.24,0005.84,0005.10
2023-05-18 13:30:00,,0831.4,5.00,0.00,29.1,27.5,00.0,37.5,30.8,27.7,0002.3,0009.58,0005.83,0005.10
2023-05-18 13:31:00,,0831.4,4.99,0.00,29.1,27.5,00.0,37.5,30.8,27.6,0001.3,0009.64,0005.82,0005.09
2023-05-18 13:32:00,,0831.4,5.00,0.00,29.1,27.5,00.0,37.5,30.8,27.7,0000.0,0010.12,0005.81,0005.10
2023-05-18 13:33:00,,0831.5,4.99,0.00,29.1,27.5,00.0,37.5,30.8,27.8,0000.0,0010.06,0005.81,0005.11
2023-05-18 13:34:00,,0831.5,5.00,0.00,29.1,27.5,00.0,37.5,30.8,27.8,0000.0,0010.02,0005.81,0005.12
2023-05-18 13:35:00,,0831.5,5.01,0.00,29.2,27.5,00.0,37.5,30.8,27.7,0000.0,0010.16,0005.83,0005.12
2023-05-18 13:36:00,,0831.5,5.00,0.00,29.2,27.5,00.0,37.5,30.8,27.9,0000.0,0010.15,0005.83,0005.12
2023-05-18 13:37:00,,0831.6,5.00,0.00,29.2,27.5,00.0,37.5,30.8,28.4,0000.0,0009.96,0005.78,0005.12
2023-05-18 13:38:00,,0831.6,5.00,0.00,29.2,27.6,00.0,37.5,30.8,28.4,0000.0,0009.85,0005.77,0005.12
2023-05-18 13:39:00,,0831.5,5.00,0.00,29.2,27.6,00.0,37.5,30.8,28.3,0000.9,0009.85,0005.76,0005.12
2023-05-18 13:40:00,,0831.5,5.00,0.00,29.2,27.6,00.0,37.5,30.8,27.8,0000.9,0010.00,0005.80,0005.14
2023-05-18 13:41:00,,0831.5,5.00,0.00,29.2,27.6,00.0,37.5,30.8,27.6,0003.2,0010.12,0005.87,0005.16
2023-05-18 13:42:00,,0831.6,5.00,0.00,29.2,27.6,00.0,37.5,30.8,27.5,0003.5,0010.14,0005.91,0005.18
2023-05-18 13:43:00,,0831.6,5.01,0.00,29.2,27.6,00.0,37.5,30.8,27.7,0003.4,0009.58,0005.93,0005.19
2023-05-18 13:44:00,,0831.6,5.01,0.00,29.2,27.6,00.0,37.5,30.8,27.6,0002.8,0009.66,0005.95,0005.20
2023-05-18 13:45:00,,0831.6,4.98,0.00,29.2,27.6,00.0,37.5,30.8,27.5,0002.4,0009.95,0005.94,0005.19
2023-05-18 13:46:00,,0831.6,5.00,0.00,29.2,27.6,00.0,37.5,30.8,27.6,0002.7,0010.29,0005.95,0005.19
2023-05-18 13:47:00,,0831.7,5.00,0.00,29.2,27.6,00.0,37.5,30.8,27.5,0002.5,0010.62,0005.96,0005.20
2023-05-18 13:48:00,,0831.6,5.01,0.00,29.2,27.6,00.0,37.5,30.8,27.7,0003.0,0010.94,0006.01,0005.21
2023-05-18 13:49:00,,0831.6,4.99,0.00,29.2,27.6,00.0,37.5,30.8,28.0,0003.1,0010.94,0005.99,0005.21
2023-05-18 13:50:00,,0831.6,4.99,0.00,29.2,27.6,00.0,37.5,30.8,28.2,0002.9,0010.81,0005.97,0005.21
2023-05-18 13:51:00,,0831.7,5.02,0.00,29.2,27.6,00.0,37.5,30.8,28.0,0002.4,0010.62,0005.94,0005.22
2023-05-18 13:52:00,,0831.6,5.00,0.00,29.2,27.6,00.0,37.5,30.8,27.7,0002.3,0010.74,0005.93,0005.22
2023-05-18 13:53:00,,0831.6,4.99,0.00,29.2,27.6,00.0,37.5,30.8,27.6,0003.1,0011.16,0005.91,0005.21
2023-05-18 13:54:00,,0831.6,5.00,0.00,29.2,27.6,00.0,37.5,30.8,27.7,0003.6,0011.43,0005.93,0005.22
2023-05-18 13:55:00,,0831.7,5.01,0.00,29.2,27.6,00.0,37.6,30.8,27.6,0002.3,0011.36,0005.91,0005.20
2023-05-18 13:56:00,,0831.6,5.00,0.00,29.2,27.6,00.0,37.6,30.8,27.5,0000.0,0011.07,0005.89,0005.21
2023-05-18 13:57:00,,0831.6,5.00,0.00,29.2,27.6,00.0,37.6,30.8,27.6,0002.0,0010.65,0005.91,0005.22
2023-05-18 13:58:00,,0831.6,4.99,0.00,29.2,27.6,00.0,37.6,30.8,27.8,0001.1,0010.52,0005.92,0005.21
2023-05-18 13:59:00,,0831.6,4.99,0.00,29.2,27.6,00.0,37.6,30.8,28.4,0000.0,0010.14,0005.89,0005.20
